If you wish to contribute or participate in the discussions about articles you are invited to join SKYbrary as a registered user

 Actions

Jeju

From SKYbrary Wiki

RKPC
Airport
ICAO: RKPC
Summary
Name Jeju
Region Asia and Pacific
Territory South Korea KR.gif
Location Jeju
Serving
Coordinates 33° 30' 26.7433", 126° 29' 36.3235"
Runways
Designator Length Width Surface ROPS
6/24 3000 m9,842.52 ft 45 m147.638 ft ASP no/no
13/31 1910 m6,266.404 ft 45 m147.638 ft ASP yes/yes


METAR
Observation RKPC 222100Z 17005KT CAVOK 21/12 Q1016 NOSIG
Station Cheju International Airport
Date/Time 22 September 2018 21:00:00
Wind direction 170°
Wind speed 05 kts
Lowest cloud amount clouds and visibility OK
Temperature 21°C
Dew point 12°C
Humidity 56%
QNH 1016 hPa
Weather condition n/a


Jeju International Airport

ICAO: RKPC IATA: CJU

Description

Jeju International Airport serves many mainland destinations in South Korea, as well as international destinations in China, Japan, and Taiwan.

Climatology

Warm continental climate/Humid continental climate/Humid subtropical climate (Köppen climate classification Dwa/Cwa)

Maps

Terrain

Loading map...

Airport Layout

Loading map...


Accidents & Serious Incidents at or in vicinity of RKPC

None on SKYbrary